TRA2620 EBBR-LGMK

Flight info

Callsign TRA2620
Flight time N/A
Altitude 37000
Route PITES DCT EDISA DCT KUNOD DCT IRBIR DCT BIRGI DCT INSEL DCT NIPEL DCT EBITI DCT PIXAL DCT NORPI DCT KEB DCT MODRA DCT MEDUX UM867 KOGAT DCT TALAS UM749 SKP UN137 AGAPU
Aircraft B738/M-SDE2E3FGHIRWXY/LB1

Departure

Time N/A
Airport Brussels Airport (EBBR)

Arrival

Time 2026-05-01 07:56
Airport Mykonos Island National Airport (LGMK)
Time Latitude Longitude Altitude Speed Heading
2026-05-01 07:23 39.05654 23.73352 31556 ft 448 kts 150°
2026-05-01 07:23 39.00673 23.78092 30805 ft 442 kts 151°
2026-05-01 07:24 38.98200 23.80429 30436 ft 440 kts 151°
2026-05-01 07:24 38.95740 23.82747 30027 ft 437 kts 151°
2026-05-01 07:24 38.93292 23.85051 29603 ft 434 kts 151°
2026-05-01 07:24 38.90898 23.87302 29206 ft 430 kts 151°
2026-05-01 07:25 38.88461 23.89592 28823 ft 427 kts 151°
2026-05-01 07:25 38.86069 23.91837 28438 ft 424 kts 151°
2026-05-01 07:25 38.83700 23.94060 28053 ft 420 kts 151°
2026-05-01 07:25 38.81352 23.96261 27677 ft 417 kts 151°
2026-05-01 07:26 38.79018 23.98447 27308 ft 413 kts 151°
2026-05-01 07:26 38.76708 24.00609 26940 ft 410 kts 151°
2026-05-01 07:26 38.74412 24.02755 26573 ft 407 kts 150°
2026-05-01 07:26 38.72135 24.04882 26217 ft 404 kts 150°
2026-05-01 07:27 38.69905 24.06964 25859 ft 401 kts 150°
2026-05-01 07:27 38.67660 24.09057 25505 ft 398 kts 150°
2026-05-01 07:27 38.65432 24.11134 25140 ft 395 kts 150°
2026-05-01 07:27 38.63222 24.13192 24803 ft 391 kts 150°
2026-05-01 07:28 38.61028 24.15234 24447 ft 389 kts 150°
2026-05-01 07:28 38.58846 24.17263 24100 ft 387 kts 150°
2026-05-01 07:28 38.56675 24.19279 23743 ft 385 kts 150°
2026-05-01 07:28 38.54516 24.21283 23338 ft 383 kts 150°
2026-05-01 07:29 38.52370 24.23275 22952 ft 380 kts 150°
2026-05-01 07:29 38.50243 24.25248 22592 ft 376 kts 150°
2026-05-01 07:29 38.48137 24.27200 22255 ft 373 kts 150°
2026-05-01 07:29 38.46046 24.29137 21901 ft 370 kts 150°
2026-05-01 07:30 38.43971 24.31056 21555 ft 367 kts 150°
2026-05-01 07:30 38.41905 24.32945 21221 ft 363 kts 152°
2026-05-01 07:30 38.39799 24.34658 20953 ft 356 kts 155°
2026-05-01 07:30 38.37691 24.36249 20698 ft 350 kts 156°
2026-05-01 07:31 38.35590 24.37800 20446 ft 347 kts 156°
2026-05-01 07:31 38.29396 24.42387 19608 ft 340 kts 156°
2026-05-01 07:32 38.25337 24.45426 18968 ft 337 kts 155°
2026-05-01 07:32 38.23317 24.46943 18647 ft 336 kts 155°
2026-05-01 07:33 38.19300 24.49962 17951 ft 335 kts 155°
2026-05-01 07:33 38.17291 24.51471 17597 ft 335 kts 155°
2026-05-01 07:33 38.13285 24.54479 16925 ft 333 kts 155°
2026-05-01 07:34 38.11292 24.55976 16590 ft 333 kts 155°
2026-05-01 07:34 38.07322 24.58952 15929 ft 330 kts 155°
2026-05-01 07:34 38.05354 24.60427 15606 ft 328 kts 155°
2026-05-01 07:35 38.03394 24.61895 15288 ft 326 kts 155°
2026-05-01 07:35 38.01442 24.63355 14970 ft 325 kts 155°
2026-05-01 07:35 37.99497 24.64809 14648 ft 324 kts 155°
2026-05-01 07:35 37.97556 24.66259 14320 ft 323 kts 155°
2026-05-01 07:36 37.95621 24.67704 14005 ft 323 kts 155°
2026-05-01 07:36 37.93690 24.69145 13656 ft 322 kts 155°
2026-05-01 07:36 37.91763 24.70582 13316 ft 321 kts 155°
2026-05-01 07:36 37.89839 24.72016 12968 ft 320 kts 155°
2026-05-01 07:37 37.86018 24.74862 12326 ft 317 kts 154°
2026-05-01 07:37 37.84124 24.76272 12013 ft 315 kts 154°
2026-05-01 07:37 37.82239 24.77673 11697 ft 314 kts 154°
2026-05-01 07:38 37.80384 24.79052 11385 ft 312 kts 154°
2026-05-01 07:38 37.78515 24.80439 11074 ft 311 kts 154°
2026-05-01 07:38 37.74797 24.83197 10450 ft 309 kts 154°
2026-05-01 07:39 37.72951 24.84567 10194 ft 305 kts 154°
2026-05-01 07:39 37.71140 24.85911 9974 ft 301 kts 154°
2026-05-01 07:39 37.67543 24.88575 9343 ft 299 kts 153°
2026-05-01 07:40 37.65752 24.89898 9041 ft 297 kts 153°
2026-05-01 07:40 37.63972 24.91214 8740 ft 296 kts 153°
2026-05-01 07:40 37.62201 24.92523 8445 ft 295 kts 152°
2026-05-01 07:40 37.60435 24.93826 8150 ft 293 kts 153°
2026-05-01 07:41 37.58678 24.95124 7857 ft 292 kts 152°
2026-05-01 07:41 37.56929 24.96414 7569 ft 291 kts 152°
2026-05-01 07:41 37.53452 24.98977 7003 ft 288 kts 152°
2026-05-01 07:42 37.51723 25.00250 6721 ft 287 kts 151°
2026-05-01 07:42 37.50002 25.01515 6445 ft 286 kts 151°
2026-05-01 07:42 37.48393 25.02971 6116 ft 286 kts 130°
2026-05-01 07:42 37.47432 25.05090 5984 ft 274 kts 103°
2026-05-01 07:43 37.47077 25.07382 5827 ft 269 kts 95°
2026-05-01 07:43 37.46818 25.09709 5688 ft 259 kts 94°
2026-05-01 07:43 37.46228 25.13933 5364 ft 239 kts 114°
2026-05-01 07:44 37.43740 25.16246 5076 ft 215 kts 148°
2026-05-01 07:44 37.41156 25.18110 4405 ft 216 kts 149°
2026-05-01 07:45 37.39852 25.19011 4166 ft 211 kts 149°
2026-05-01 07:45 37.38583 25.19876 3993 ft 203 kts 149°
2026-05-01 07:45 37.37366 25.20697 3876 ft 195 kts 149°
2026-05-01 07:45 37.36177 25.21495 3797 ft 195 kts 149°
2026-05-01 07:46 37.34946 25.22323 3687 ft 206 kts 149°
2026-05-01 07:46 37.33660 25.23187 3566 ft 211 kts 149°
2026-05-01 07:46 37.31100 25.24875 3109 ft 206 kts 149°
2026-05-01 07:47 37.29830 25.25699 2802 ft 206 kts 149°
2026-05-01 07:47 37.28564 25.26519 2532 ft 204 kts 149°
2026-05-01 07:47 37.27306 25.27333 2290 ft 202 kts 149°
2026-05-01 07:47 37.26065 25.28129 2056 ft 199 kts 149°
2026-05-01 07:48 37.23582 25.29711 1986 ft 201 kts 149°
2026-05-01 07:48 37.22344 25.30502 1974 ft 199 kts 149°
2026-05-01 07:48 37.21113 25.31296 1967 ft 199 kts 149°
2026-05-01 07:49 37.19882 25.32098 1970 ft 199 kts 149°
2026-05-01 07:49 37.17428 25.33703 1977 ft 199 kts 148°
2026-05-01 07:49 37.16334 25.34704 1944 ft 190 kts 115°
2026-05-01 07:50 37.16137 25.36151 1977 ft 159 kts 62°
2026-05-01 07:50 37.17385 25.38114 1969 ft 137 kts 25°
2026-05-01 07:50 37.18267 25.38480 1978 ft 132 kts 13°
2026-05-01 07:51 37.19167 25.38794 1988 ft 137 kts 13°
2026-05-01 07:51 37.20090 25.39115 1974 ft 137 kts 12°
2026-05-01 07:51 37.20990 25.39423 1962 ft 132 kts 12°
2026-05-01 07:52 37.22780 25.40022 1984 ft 137 kts 11°
2026-05-01 07:52 37.23389 25.40223 1983 ft 137 kts 12°
2026-05-01 07:52 37.24309 25.40527 1985 ft 136 kts 12°
2026-05-01 07:53 37.26128 25.41126 1981 ft 134 kts 12°
2026-05-01 07:53 37.27030 25.41423 1980 ft 134 kts 12°
2026-05-01 07:53 37.27937 25.41623 1956 ft 132 kts 351°
2026-05-01 07:53 37.31840 25.40032 1982 ft 135 kts 344°
2026-05-01 07:54 37.37183 25.37612 1871 ft 136 kts 344°
2026-05-01 07:55 37.39628 25.36525 1518 ft 122 kts 344°
2026-05-01 07:55 37.41249 25.35845 970 ft 128 kts 343°
2026-05-01 07:56 37.43594 25.34788 410 ft 52 kts 341°
2026-05-01 07:56 37.43550 25.34692 407 ft 14 kts 159°
2026-05-01 07:57 37.43475 25.34694 403 ft 12 kts 235°
2026-05-01 07:57 37.43463 25.34662 406 ft 0 kts 251°